This demonstration page uses our WeatherBlox Daily Observations layout. Learn more.

Hourly Observations for December 20, 2017

Temp ( °F °C ) Dew Point ( °F °C ) Humidity (%) Winds ( mph kmh ) Pressure ( in mb ) Visibility ( mi km ) Precip ( " mm )
12:54 am 00:54 Clear 29 -1.7 16 -8.9 58 58 ENE 9 15 30.13 1020 10 16.0934 0 0
1:54 am 01:54 Clear 29 -1.7 15 -9.4 56 56 E 6 9 30.14 1021 10 16.0934 0 0
2:54 am 02:54 Clear 29 -1.7 15 -9.4 56 56 Calm 30.15 1021 10 16.0934 0 0
3:54 am 03:54 Clear 23 -5 14 -10 68 68 N 7 11 30.14 1021 10 16.0934 0 0
4:54 am 04:54 Clear 21 -6.1 14 -10 74 74 NE 3 6 30.13 1020 10 16.0934 0 0
5:54 am 05:54 Clear 22 -5.6 14 -10 71 71 Calm 30.13 1020 10 16.0934 0 0
6:54 am 06:54 Clear 24 -4.4 14 -10 65 65 Calm 30.12 1020 10 16.0934 0 0
7:54 am 07:54 Sunny 23 -5 13 -10.6 65 65 Calm 30.12 1020 10 16.0934 0 0
8:54 am 08:54 Sunny 30 -1.1 15 -9.4 54 54 SE 10 17 30.12 1020 10 16.0934 0 0
9:54 am 09:54 Sunny 34 1.1 12 -11.1 40 40 SE 12 19 30.11 1020 10 16.0934 0 0
10:54 am 10:54 Sunny 36 2.2 12 -11.1 37 37 SSE 14 22 30.09 1019 10 16.0934 0 0
11:54 am 11:54 Sunny 40 4.4 14 -10 35 35 SSE 17 28 30.03 1017 10 16.0934 0 0
12:54 pm 12:54 Mostly Sunny 42 5.6 17 -8.3 36 36 SSE 9 15 29.99 1016 10 16.0934 0 0
1:54 pm 13:54 Cloudy 45 7.2 20 -6.7 37 37 SSE 16 26 29.93 1014 10 16.0934 0 0
2:54 pm 14:54 Sunny 45 7.2 22 -5.6 40 40 SSE 13 20 29.91 1013 10 16.0934 0 0
3:54 pm 15:54 Cloudy 44 6.7 23 -5 43 43 SSE 12 19 29.9 1013 10 16.0934 0 0
4:34 pm 16:34 Cloudy 44 6.7 23 -5 43 43 SSE 14 22 29.91 1013 10 16.0934 0 0
4:54 pm 16:54 Cloudy 43 6.1 23 -5 45 45 SSE 13 20 29.89 1012 10 16.0934 0 0
5:54 pm 17:54 Cloudy 43 6.1 24 -4.4 47 47 SSE 8 13 29.88 1012 10 16.0934 0 0
6:28 pm 18:28 Cloudy 42 5.6 25 -3.9 51 51 S 10 17 29.88 1012 10 16.0934 0 0
6:54 pm 18:54 Cloudy 42 5.6 26 -3.3 53 53 SSE 14 22 29.87 1011 10 16.0934 0 0
7:54 pm 19:54 Cloudy 42 5.6 27 -2.8 55 55 SSE 10 17 29.87 1012 10 16.0934 0 0
8:54 pm 20:54 Cloudy 42 5.6 27 -2.8 55 55 SSE 12 19 29.86 1011 10 16.0934 0 0
9:54 pm 21:54 Cloudy 41 5 27 -2.8 57 57 SSE 12 19 29.85 1011 10 16.0934 0 0
10:23 pm 22:23 Cloudy 41 5 28 -2.2 60 60 SSE 12 19 29.83 1010 10 16.0934 0 0
10:54 pm 22:54 Cloudy 41 5 28 -2.2 60 60 SSE 10 17 29.82 1010 10 16.0934 0 0
11:54 pm 23:54 Cloudy 41 5 30 -1.1 65 65 S 9 15 29.81 1010 10 16.0934 0 0

Powered by AerisWeather